Weather in Carnab

Uzbekistan     39°50′09″N   65°29′57″E
temp.,
°C
wind,
m/s
gust,
m/s
humid.,
%
clouds,
%
prec.,
mm/h
press.,
hPa
HPBL,
m
21 june, mon
mon2123:00+25ne813130 0.0 1010272
02:00+22ne610160 0.0 1009168
05:00+21ne612180 0.0 1009193
08:00+26ne710130 0.0 1011543
11:00+31ne5590 0.0 10111409
14:00+34nne4480 0.0 10102230
17:00+35ne7660 0.0 10092735
20:00+30ne814130 0.0 1010357
22 june, tue
tue2223:00+27ne610180 0.0 1011151
02:00+26ne45180 0.0 101046
05:00+25ne56200 0.0 101065
08:00+30nne59190 0.0 1010505
11:00+35nne77150 0.0 10102643
14:00+36n108120 0.0 10092822
17:00+35n10990 0.0 10082291
20:00+30nne1014110 0.0 1009449
23 june, wed
wed2323:00+26nne58120 0.0 1009143
02:00+24nne57150 0.0 100992
05:00+22ne611180 0.0 1009149
08:00+26ne811170 0.0 1010528
11:00+32ne65120 0.0 10101293
14:00+35nne5480 0.0 10092141
17:00+36ne7680 0.0 10082413
20:00+31nne913120 0.0 1008318
24 june, thu
thu2423:00+27nne714160 0.0 1009231
02:00+25ne610180 0.0 1008143
05:00+23ne611200 0.0 1008136
08:00+29ene810150 0.0 1009535
11:00+33ne65120 0.0 10091656
14:00+36ne5590 0.0 10072554
17:00+36nne98100 0.0 10062887
20:00+32nne812160 0.0 1007258
25 june, fri
fri2523:00+29nne58200 0.0 100789
02:00+27ne714270 0.0 1007259
05:00+25ne610380 0.0 1007144
08:00+29nne68310 0.0 1008471
11:00+32nnw97180 0.0 10081900
14:00+34n87130 0.0 10072443
17:00+33nne10970 0.0 10062093
20:00+30nne1015100 0.0 1007520